[[{"header":{"parameterUnit":"m.s-1","parameterCategory":1,"la1":30.2992,"la2":30.254,"lo1":-89.0895,"lo2":-89.0443,"dy":0.0025,"dx":0.0025,"nx":19,"ny":19,"refTime":"2026-05-24T21:00:00:Z","depth":0,"parameterNumber":2,"parameterNumberName":"U-component_of_WINDS"},"data":[0,0,0,-3.9593,-3.9598,-3.9871,-3.9873,-4.0189,-4.0191,0,0,0,0,0,0,0,0,0,0,0,-3.9489,-3.949,-3.9592,-3.9599,-3.9871,-3.9873,-4.0188,-4.0191,0,0,0,0,0,0,0,0,0,0,0,-3.9488,-3.949,-3.9491,-3.96,-3.9871,-3.9873,-4.0187,-3.9994,0,0,0,0,0,0,0,0,0,0,-3.9735,-3.9615,-3.9489,-3.9491,-3.9601,-3.9871,-3.9873,-3.9985,-4.0006,-4.005,0,-4.0079,0,-4.014,-4.021,-4.0211,0,0,0,-3.9617,-3.9598,-3.9692,-3.9492,-3.9603,-3.987,-3.9753,-3.9997,-4.0021,-4.0077,-4.0084,-4.0097,-4.0145,-4.0212,-4.0213,-4.0398,-4.0398,0,0,-3.9602,-3.9526,-3.9676,-3.9706,-3.9659,-3.9744,-3.9761,-4.0012,-4.0016,-4.0086,-4.0105,-4.015,-4.0213,-4.0216,-4.0398,-4.0398,0,0,0,-3.9546,-3.9515,-3.9604,-3.9692,-3.9744,-3.9752,-3.9772,-4.0005,-4.004,-4.0109,-4.0154,-4.0215,-4.0218,-4.0398,-4.0398,-4.0324,0,0,0,-3.9538,-3.9482,-3.9596,-3.9553,-3.9738,-3.9877,-3.9758,-4.0023,-4.0054,-4.0152,-4.0215,-4.0221,-4.0398,-4.0398,-4.0326,-4.0302,0,0,0,-3.9479,-3.9476,-3.9507,-3.9548,-3.9662,-3.9875,-3.9925,-4.0031,-4.008,-4.0211,-4.0222,-4.0399,-4.0398,-4.0328,-4.0305,-4.0328,0,0,0,-3.9395,-3.9438,-3.9504,-3.9571,-3.9659,-3.9826,-3.9924,-4.0053,-4.0156,-4.0217,-4.0398,-4.0398,-4.0329,-4.0307,-4.033,-4.0333,-4.0327,0,0,-3.9407,-3.9437,-3.9482,-3.955,-3.9684,-3.9791,-3.9917,-4.0085,-4.0168,-4.0318,-4.0323,-4.0326,-4.0305,-4.0329,-4.0324,-4.0318,0,0,0,-3.9461,-3.9492,-3.9544,-3.9638,-3.9765,-3.9874,-4.003,-4.0093,-4.0223,-4.0228,-4.0343,-4.0334,-4.035,-4.0356,-4.0351,-4.0371,-4.0398,-4.0398,-4.0398,-3.9368,-3.9471,-3.9554,-3.969,-3.978,-3.9941,-4.0024,-4.0137,-4.0215,-4.0241,-4.0285,-4.027,-4.0273,-4.027,-4.0289,-4.0297,-4.0296,-4.0296,-4.0296,-3.9396,-3.9456,-3.956,-3.9676,-3.9786,-3.9887,-4.0045,-4.0098,-4.0209,-4.0244,-4.0264,-4.0292,-4.0261,-4.0283,-4.0292,-4.0292,-4.0293,-4.0293,-4.0294,-3.9346,-3.9393,-3.9467,-3.9614,-3.9717,-3.9856,-3.9958,-4.0056,-4.0149,-4.0168,-4.0227,-4.0228,-4.0242,-4.019,-4.019,-4.019,-4.0189,-4.0189,-4.0189,-3.9263,-3.935,-3.9422,-3.9563,-3.9637,-3.9747,-3.9911,-3.9988,-4.0099,-4.0162,-4.0163,-4.0239,-4.0239,-4.0235,-4.0189,-4.0189,-4.0189,-4.0189,-4.0189,-3.925,-3.9269,-3.938,-3.9454,-3.9629,-3.9725,-3.9849,-3.9998,-4.0076,-4.0124,-4.0198,-4.0181,-4.0219,-4.0223,-4.0221,-4.0174,-4.0174,-4.0174,-4.0174,-3.9207,-3.9236,-3.9372,-3.9484,-3.9606,-3.973,-3.9856,-3.9986,-4.0124,-4.018,-4.0202,-4.0208,-4.0208,-4.0247,-4.025,-4.025,-4.0212,-4.0212,-4.0212,-3.9205,-3.925,-3.9336,-3.9469,-3.9613,-3.9736,-3.9859,-3.9987,-4.0148,-4.0215,-4.0226,-4.0224,-4.0236,-4.0235,-4.0299,-4.0303,-4.0305,0,0]},{"header":{"parameterUnit":"m.s-1","parameterCategory":1,"la1":30.2992,"la2":30.254,"lo1":-89.0895,"lo2":-89.0443,"dy":0.0025,"dx":0.0025,"nx":19,"ny":19,"refTime":"2026-05-24T21:00:00:Z","depth":0,"parameterNumber":3,"parameterNumberName":"V-component_of_WINDS"},"data":[0,0,0,4.3543,4.3548,4.3779,4.378,4.4061,4.4063,0,0,0,0,0,0,0,0,0,0,0,4.3466,4.3468,4.3543,4.3548,4.3779,4.378,4.4061,4.4063,0,0,0,0,0,0,0,0,0,0,0,4.3465,4.3467,4.3469,4.3549,4.3779,4.378,4.406,4.3891,0,0,0,0,0,0,0,0,0,0,4.3669,4.3589,4.3467,4.3469,4.355,4.3779,4.378,4.3883,4.3901,4.395,0,4.3992,0,4.4032,4.4081,4.4082,0,0,0,4.3554,4.3574,4.3644,4.347,4.3553,4.3778,4.3677,4.3893,4.3914,4.3975,4.3996,4.4007,4.4037,4.4083,4.4084,4.435,4.4351,0,0,4.3542,4.3503,4.363,4.3657,4.3621,4.3669,4.3684,4.3906,4.3926,4.3997,4.4014,4.4042,4.4085,4.4087,4.435,4.4351,0,0,0,4.3501,4.3493,4.3559,4.3645,4.3688,4.3676,4.3693,4.3917,4.3941,4.4017,4.4045,4.4086,4.409,4.4349,4.435,4.4361,0,0,0,4.3494,4.347,4.3553,4.3531,4.3684,4.3805,4.3698,4.3926,4.3952,4.4043,4.4086,4.4092,4.4348,4.4349,4.4358,4.4371,0,0,0,4.3454,4.3465,4.3496,4.3529,4.3627,4.3803,4.384,4.3932,4.3969,4.4082,4.4093,4.4347,4.4349,4.4356,4.4368,4.4431,0,0,0,4.34,4.35,4.3495,4.3619,4.3625,4.3808,4.3839,4.3977,4.4076,4.4088,4.4348,4.435,4.4355,4.4366,4.4429,4.4477,4.4494,0,0,4.3504,4.3511,4.3587,4.359,4.3764,4.3776,4.3952,4.4078,4.4124,4.4272,4.4279,4.4359,4.4368,4.4431,4.4602,4.4615,0,0,0,4.3607,4.3661,4.3716,4.3809,4.3909,4.3997,4.41,4.4148,4.4277,4.4192,4.44,4.4407,4.4445,4.447,4.4481,4.4518,4.436,4.436,4.4359,4.3697,4.3753,4.3882,4.3966,4.4056,4.4165,4.4243,4.4326,4.4352,4.4401,4.4445,4.4542,4.457,4.4579,4.4616,4.4476,4.4476,4.4476,4.4476,4.3855,4.3941,4.3979,4.4118,4.4176,4.4294,4.4403,4.4419,4.4537,4.4513,4.455,4.4518,4.4591,4.4627,4.4477,4.4477,4.4477,4.4477,4.4477,4.392,4.3971,4.4029,4.4172,4.4276,4.4358,4.4471,4.452,4.4566,4.4603,4.4656,4.4656,4.4662,4.4625,4.4625,4.4626,4.4626,4.4626,4.4626,4.3964,4.4029,4.4119,4.4237,4.4305,4.4401,4.4514,4.4582,4.467,4.4697,4.4697,4.4721,4.4589,4.4554,4.4632,4.4631,4.463,4.463,4.4629,4.4103,4.408,4.4218,4.4287,4.4432,4.4533,4.4595,4.4731,4.4795,4.4849,4.4867,4.4761,4.4771,4.4762,4.4734,4.4854,4.4854,4.4854,4.4854,4.4157,4.4168,4.4322,4.4429,4.454,4.4612,4.4767,4.4857,4.4946,4.4989,4.498,4.4947,4.4936,4.4952,4.494,4.4914,4.5077,4.5077,4.5078,4.4246,4.4271,4.4393,4.4482,4.46,4.47,4.4848,4.497,4.5066,4.5088,4.5025,4.5015,4.4963,4.4943,4.496,4.494,4.4894,0,0]}]]